Regional Weather Roundup
Issued by NWS

Home | Current Version | Previous Version | Text Only | Print | Product List | Glossary On
Versions: 1 2 3 4 5 6 7 8 9 10 11 12 13 14 15 16 17 18 19 20 21 22 23 24 25 26 27 28 29 30 31 32 33 34 35 36 37 38 39 40 41 42 43 44 45 46 47 48 49 50
000
ASUS43 KMKX 260500
RWRWI

WISCONSIN REGIONAL WEATHER ROUNDUP
NATIONAL WEATHER SERVICE MILWAUKEE/SULLIVAN WI
1200 AM CDT TUE SEP 26 2017

NOTE: "FAIR" INDICATES FEW OR NO CLOUDS BELOW 12,000 FEET WITH NO
SIGNIFICANT WEATHER AND/OR OBSTRUCTIONS TO VISIBILITY.

WIZ001-002-006>008-014>016-023>028-260600-
NORTHWEST WISCONSIN

CITY           SKY/WX    TMP DP  RH WIND       PRES   REMARKS
SUPERIOR ARPT  CLOUDY    59  55  88 NE7       29.99S
ASHLAND        CLOUDY    59  57  93 NE13      29.99S
HAYWARD        CLOUDY    58  56  93 NE6       29.97F
SIREN          LGT RAIN  56  55  95 CALM      29.98S
CUMBERLAND     LGT RAIN  55  54  94 NW3       29.97S
RICE LAKE      LGT RAIN  58  57  97 CALM      29.96F
CHETEK         DRIZZLE   60  60 100 N7        29.95F
LADYSMITH      CLOUDY    61  59  94 NE3       29.98S
EAU CLAIRE     NOT AVBL
MENOMONIE      DRIZZLE   61  61 100 N7        29.93F
NEW RICHMOND   RAIN      57  56  96 N6        29.95F
OSCEOLA        CLOUDY    58  58 100 N5        29.99F
$$

WIZ003>005-009-010-017-018-260600-
NORTH CENTRAL WISCONSIN

CITY           SKY/WX    TMP DP  RH WIND       PRES   REMARKS
MANITOWISH WTR NOT AVBL
ARBOR VITAE    CLOUDY    62  60  94 CALM      29.99S FOG
WOODRUFF       CLOUDY    62  60  94 CALM      29.99S FOG
RHINELANDER    CLOUDY    63  63 100 NE6       29.97F
EAGLE RIVER    CLOUDY    61  61 100 NE3       29.98F
LAND O LAKES   CLOUDY    61  60  97 CALM      30.01F
PHILLIPS       CLOUDY    58  58 100 NE3       29.97S FOG
TOMAHAWK       FOG       62  61  97 CALM      29.97F VSB 1/2
MEDFORD        FOG       63  63  99 CALM      29.96S VSB 1/2
MERRILL        CLOUDY    64  64 100 CALM      29.95F FOG
$$

WIZ029-030-035-036-043>047-260600-
CENTRAL WISCONSIN

CITY           SKY/WX    TMP DP  RH WIND       PRES   REMARKS
WAUSAU         CLOUDY    66  64  93 S3        29.94R
MOSINEE        CLOUDY    63  63 100 CALM      29.96S
MARSHFIELD     MOCLDY    63  60  90 SW5       29.95S
STEVENS POINT  CLOUDY    64  64 100 CALM      29.97R
WAUPACA        CLEAR     67  65  93 CALM      29.95S
WAUTOMA        PTCLDY    66  64  93 W6        29.97R
WISC RAPIDS    LGT RAIN  67  65  93 S3        29.97R
CAMP DOUGLAS   LGT RAIN  66  66 100 E9        29.95F FOG
$$

WIZ011>013-019>022-031-037>040-048>050-260600-
NORTHEAST WISCONSIN

CITY           SKY/WX    TMP DP  RH WIND       PRES   REMARKS
ANTIGO         CLOUDY    64  64 100 CALM      29.96F
SHAWANO        PTCLDY    69  64  85 CALM      29.93S
OCONTO         CLEAR     64  61  92 CALM      29.93S
STURGEON BAY   CLEAR     69  60  73 CALM      29.94R
GREEN BAY      CLEAR     64  64 100 S5        29.94R
MANITOWOC      MOCLDY    67  60  78 CALM      29.94R
APPLETON       CLEAR     70  57  64 N5        29.93S
CLINTONVILLE   CLEAR     66  61  82 CALM      29.94S
OSHKOSH        CLEAR     66  61  84 CALM      29.93S
$$

WIZ032>034-041-042-053>061-260600-
SOUTHWEST WISCONSIN

CITY           SKY/WX    TMP DP  RH WIND       PRES   REMARKS
LA CROSSE      MOCLDY    69  67  93 S3        29.93S
SPARTA         LGT RAIN  63  63  99 CALM      29.95S
VIROQUA        CLOUDY    65  65 100 W3        29.97S
BOSCOBEL       LGT RAIN  68  66  93 CALM      29.94F FOG
PRAIRIE DU CHI LGT RAIN  67  65  94 CALM      29.94F
PLATTEVILLE    PTCLDY    68  67  95 N6        29.96F
$$

WIZ056-057-062-063-064-067-068-260600-
SOUTH CENTRAL WISCONSIN

CITY           SKY/WX    TMP DP  RH WIND       PRES   REMARKS
REEDSBURG      CLOUDY    67  66  97 N6        29.95F
BARABOO/DELLS  CLOUDY    67  62  82 NW6       29.97F
LONE ROCK      HVY RAIN  66  66 100 W7        29.96R FOG
MINERAL POINT  PTCLDY    68  68 100 NW5       29.97S
MADISON        CLEAR     68  63  84 NW6       29.95R
MIDDLETON      MOCLDY    70  64  82 NW7       29.96R
WATERTOWN      CLEAR     65  61  86 CALM      29.93S
MONROE         PTCLDY    70  61  73 N6        29.94F
JANESVILLE     CLEAR     70  59  68 CALM      29.93S
$$

WIZ051-052-058>065-066-070>072-260600-
SOUTHEAST WISCONSIN

CITY           SKY/WX    TMP DP  RH WIND       PRES   REMARKS
MILWAUKEE      CLEAR     75  61  61 S5        29.93S
WAUKESHA       PTCLDY    72  55  56 S5        29.95S
MILWAUKEE/TIMM CLEAR     68  55  64 CALM      29.94S
RACINE         CLEAR     71  65  81 S3        29.95S
BURLINGTON     CLEAR     63  60  91 CALM      29.94S
KENOSHA        CLEAR     70  60  70 S5        29.94S
FOND DU LAC    PTCLDY    68  59  73 W3        29.94R
SHEBOYGAN      PTCLDY    65  62  90 W5        29.94R
WEST BEND        N/A     63  59  88 CALM      29.94S
JUNEAU         CLEAR     68  58  71 SE5       29.95S
$$

LSZ147-162-260600-
LAKE SUPERIOR

STATION/POSITION TIME  TEMP    WIND        PRES    WAVE
                       AIR SEA DIR/SP/G            HT/PER
                 (UTC) (F)     (DEG/KT/KT) (MB)    (FT/S)
W MID LAKE BUOY  0350   56 56   40/ 16/ 17 1016.0R   3/ 5
DEVILS ISLAND    0400   58      70/ 20/ 24 1015.9R
SAXON HARBOR     0430   61      40/ 12/ 14 1014.9R
$$

LMZ867-665-643>646-260600-
LAKE MICHIGAN

STATION/POSITION TIME  TEMP    WIND        PRES    WAVE
                       AIR SEA DIR/SP/G            HT/PER
                 (UTC) (F)     (DEG/KT/KT) (MB)    (FT/S)
S GREEN BAY BUOY 0300   72 70  170/  8/ 10 1013.1
N MID LAKE BUOY  0350   69 67  160/  8/ 10 1014.2F   1
NORTHPORT PIER   0440   72     280/  3/  6 1013.2S
KEWAUNEE LAKESHO 0430   64     300/  2/  4 1012.8R
SHEBOYGAN LAKESH 0400   72     190/  6/  6 1013.0F
PORT WASHINGTON  0440   69     270/  1/  2 1014.2S
ATWATER BUOY     0309   66 61  160/  6/  8 1013.7F
MILWAUKEE LAKESH 0430   68     110/  1/  2   N/A
S MID LAKE BUOY  0350   74 71  110/  6/  8 1013.8F   0
KENOSHA   LAKESH 0400   73     180/  7/  9 1013.5
$$

TC  - TEMPERATURE IN CELSIUS
VSB - VISIBILITY IN STATUTE MILES
WCI - WIND CHILL INDEX
HX  - HEAT INDEX





USA.gov is the U.S. government's official web portal to all federal, state and local government web resources and services.